This is the latest recevied weather packets stored in our database for station/object R1CBW-13. If no packets are shown the sender has not sent any weather packets the latest 10 day(s).
| Time | Temp. | Humidity | Pressure | Rain* | Wind** | Luminosity | Snow |
|---|---|---|---|---|---|---|---|
| 1777143729 | 6.11° C | 92% | 988.4 hPa | 0 mm | - | - | - |
| 1777143669 | 6.11° C | 91% | 988.3 hPa | 0 mm | - | - | - |
| 1777143609 | 6.67° C | 88% | 988.3 hPa | 0 mm | - | - | - |
| 1777143549 | 7.22° C | 90% | 988.4 hPa | 0 mm | - | - | - |
| 1777143489 | 6.67° C | 90% | 988.3 hPa | 0 mm | - | - | - |
| 1777143429 | 6.67° C | 92% | 988.4 hPa | 0 mm | - | - | - |
| 1777143369 | 6.11° C | 93% | 988.4 hPa | 0 mm | - | - | - |
| 1777143309 | 6.67° C | 94% | 988.3 hPa | 0 mm | - | - | - |
| 1777143249 | 6.11° C | 95% | 988.4 hPa | 0 mm | - | - | - |
| 1777143189 | 5.56° C | 92% | 988.4 hPa | 0 mm | - | - | - |
| 1777143129 | 6.11° C | 92% | 988.4 hPa | 0 mm | - | - | - |
| 1777143069 | 6.11° C | 90% | 988.4 hPa | 0 mm | - | - | - |
| 1777143009 | 6.67° C | 89% | 988.4 hPa | 0 mm | - | - | - |
| 1777142949 | 6.67° C | 88% | 988.4 hPa | 0 mm | - | - | - |
| 1777142889 | 6.67° C | 88% | 988.4 hPa | 0 mm | - | - | - |
| 1777142829 | 6.67° C | 89% | 988.4 hPa | 0 mm | - | - | - |
| 1777142769 | 6.67° C | 90% | 988.4 hPa | 0 mm | - | - | - |
| 1777142709 | 6.67° C | 92% | 988.4 hPa | 0 mm | - | - | - |
| 1777142649 | 6.11° C | 90% | 988.5 hPa | 0 mm | - | - | - |
| 1777142588 | 6.67° C | 88% | 988.5 hPa | 0 mm | - | - | - |
| 1777142529 | 6.67° C | 88% | 988.4 hPa | 0 mm | - | - | - |
| 1777142469 | 6.67° C | 89% | 988.5 hPa | 0 mm | - | - | - |
| 1777142409 | 6.67° C | 90% | 988.5 hPa | 0 mm | - | - | - |
| 1777142349 | 6.67° C | 89% | 988.5 hPa | 0 mm | - | - | - |
| 1777142289 | 6.67° C | 89% | 988.5 hPa | 0 mm | - | - | - |
* Rain latest hour (hover to see other rain measurements)
** Current wind speed in m/s (hover to see current wind gust speed)